Year,Month,Day,Hour,Minute,Value (Times are PST for temperature in C)
2013,01,21,09,00,-1.10
2013,01,21,09,01,-1.10
2013,01,21,09,02,-1.10
2013,01,21,09,03,-1.10
2013,01,21,09,04,-1.10
2013,01,21,09,05,-1.10
2013,01,21,09,06,-1.10
2013,01,21,09,07,-1.10
2013,01,21,09,08,-0.90
2013,01,21,09,09,-0.90
2013,01,21,09,10,-0.90
2013,01,21,09,11,-0.90
2013,01,21,09,12,-0.90
2013,01,21,09,13,-0.90
2013,01,21,09,14,-0.90
2013,01,21,09,15,-0.90
2013,01,21,09,16,-0.90
2013,01,21,09,17,-0.90
2013,01,21,09,18,-0.90
2013,01,21,09,19,-0.90
2013,01,21,09,20,-0.90
2013,01,21,09,21,-0.90
2013,01,21,09,22,-0.90
2013,01,21,09,23,-0.90
2013,01,21,09,24,-0.90
2013,01,21,09,25,-0.90
2013,01,21,09,26,-0.90
2013,01,21,09,27,-0.90
2013,01,21,09,28,-0.80
2013,01,21,09,29,-0.80
2013,01,21,09,30,-0.80
2013,01,21,09,31,-0.80
2013,01,21,09,32,-0.80
2013,01,21,09,33,-0.80
2013,01,21,09,34,-0.80
2013,01,21,09,35,-0.80
2013,01,21,09,36,-0.70
2013,01,21,09,37,-0.70
2013,01,21,09,38,-0.70
2013,01,21,09,39,-0.70
2013,01,21,09,40,-0.60
2013,01,21,09,41,-0.60
2013,01,21,09,42,-0.60
2013,01,21,09,43,-0.60
2013,01,21,09,44,-0.60
2013,01,21,09,45,-0.60
2013,01,21,09,46,-0.60
2013,01,21,09,47,-0.50
2013,01,21,09,48,-0.40
2013,01,21,09,49,-0.40
2013,01,21,09,50,-0.40
2013,01,21,09,51,-0.40
2013,01,21,09,52,-0.40
2013,01,21,09,53,-0.40
2013,01,21,09,54,-0.40
2013,01,21,09,55,-0.40
2013,01,21,09,56,-0.40
2013,01,21,09,57,-0.40
2013,01,21,09,58,-0.40
2013,01,21,09,59,-0.40
2013,01,21,10,00,-0.40
2013,01,21,10,01,-0.30
2013,01,21,10,02,-0.30
2013,01,21,10,03,-0.30
2013,01,21,10,04,-0.30
2013,01,21,10,05,-0.30
2013,01,21,10,06,-0.20
2013,01,21,10,07,-0.20
2013,01,21,10,08,-0.20
2013,01,21,10,09,-0.20
2013,01,21,10,10,-0.10
2013,01,21,10,11,-0.10
2013,01,21,10,12,-0.10
2013,01,21,10,13,-0.10
2013,01,21,10,14,-0.10
2013,01,21,10,15,-0.10
2013,01,21,10,16,-0.10
2013,01,21,10,17,-0.10
2013,01,21,10,18,-0.10
2013,01,21,10,19,-0.10
2013,01,21,10,20,-0.10
2013,01,21,10,21,0.00
2013,01,21,10,22,0.10
2013,01,21,10,23,0.10
2013,01,21,10,24,0.10
2013,01,21,10,25,0.10
2013,01,21,10,26,0.10
2013,01,21,10,27,0.10
2013,01,21,10,28,0.10
2013,01,21,10,29,0.20
2013,01,21,10,30,0.20
2013,01,21,10,31,0.20
2013,01,21,10,32,0.20
2013,01,21,10,33,0.20
2013,01,21,10,34,0.20
2013,01,21,10,35,0.20
2013,01,21,10,36,0.20
2013,01,21,10,37,0.20
2013,01,21,10,38,0.20
2013,01,21,10,39,0.30
2013,01,21,10,40,0.30
2013,01,21,10,41,0.30
2013,01,21,10,42,0.30
2013,01,21,10,43,0.30
2013,01,21,10,44,0.20
2013,01,21,10,45,0.30
2013,01,21,10,46,0.30
2013,01,21,10,47,0.30
2013,01,21,10,48,0.30
2013,01,21,10,49,0.40
2013,01,21,10,50,0.40
2013,01,21,10,51,0.40
2013,01,21,10,52,0.40
2013,01,21,10,53,0.50
2013,01,21,10,54,0.50
2013,01,21,10,55,0.60
2013,01,21,10,56,0.60
2013,01,21,10,57,0.70
2013,01,21,10,58,0.80
2013,01,21,10,59,0.90
2013,01,21,11,00,1.00
2013,01,21,11,01,1.10
2013,01,21,11,02,1.20
2013,01,21,11,03,1.30
2013,01,21,11,04,1.40
2013,01,21,11,05,1.50
2013,01,21,11,06,1.50
2013,01,21,11,07,1.50
2013,01,21,11,08,1.40
2013,01,21,11,09,1.30
2013,01,21,11,10,1.30
2013,01,21,11,11,1.20
2013,01,21,11,12,1.20
2013,01,21,11,13,1.10
2013,01,21,11,14,1.20
2013,01,21,11,15,1.20
2013,01,21,11,16,1.30
2013,01,21,11,17,1.30
2013,01,21,11,18,1.30
2013,01,21,11,19,1.30
2013,01,21,11,20,1.30
2013,01,21,11,21,1.30
2013,01,21,11,22,1.40
2013,01,21,11,23,1.50
2013,01,21,11,24,1.50
2013,01,21,11,25,1.50
2013,01,21,11,26,1.50
2013,01,21,11,27,1.50
2013,01,21,11,28,1.50
2013,01,21,11,29,1.50
2013,01,21,11,30,1.50
2013,01,21,11,31,1.60
2013,01,21,11,32,1.60
2013,01,21,11,33,1.60
2013,01,21,11,34,1.70
2013,01,21,11,35,1.80
2013,01,21,11,36,1.80
2013,01,21,11,37,1.90
2013,01,21,11,38,1.90
2013,01,21,11,39,1.80
2013,01,21,11,40,1.90
2013,01,21,11,41,1.90
2013,01,21,11,42,1.90
2013,01,21,11,43,1.90
2013,01,21,11,44,1.90
2013,01,21,11,45,1.90
2013,01,21,11,46,1.90
2013,01,21,11,47,1.90
2013,01,21,11,48,1.90
2013,01,21,11,49,2.00
2013,01,21,11,50,2.00
2013,01,21,11,51,2.00
2013,01,21,11,52,2.10
2013,01,21,11,53,2.20
2013,01,21,11,54,2.20
2013,01,21,11,55,2.20
2013,01,21,11,56,2.30
2013,01,21,11,57,2.40
2013,01,21,11,58,2.50
2013,01,21,11,59,2.50
2013,01,21,12,00,2.50
2013,01,21,12,01,2.60
2013,01,21,12,02,2.70
2013,01,21,12,03,2.70
2013,01,21,12,04,2.70
2013,01,21,12,05,2.70
2013,01,21,12,06,2.70
2013,01,21,12,07,2.70
2013,01,21,12,08,2.70
2013,01,21,12,09,2.70
2013,01,21,12,10,2.70
2013,01,21,12,11,2.70
2013,01,21,12,12,2.70
2013,01,21,12,13,2.70
2013,01,21,12,14,2.70
2013,01,21,12,15,2.70
2013,01,21,12,16,2.70
2013,01,21,12,17,2.70
2013,01,21,12,18,2.50
2013,01,21,12,19,2.50
2013,01,21,12,20,2.40
2013,01,21,12,21,2.30
2013,01,21,12,22,2.30
2013,01,21,12,23,2.20
2013,01,21,12,24,2.20
2013,01,21,12,25,2.10
2013,01,21,12,26,2.00
2013,01,21,12,27,2.00
2013,01,21,12,28,1.90
2013,01,21,12,29,1.80
2013,01,21,12,30,1.70
2013,01,21,12,31,1.60
2013,01,21,12,32,1.50
2013,01,21,12,33,1.50
2013,01,21,12,34,1.50
2013,01,21,12,35,1.60
2013,01,21,12,36,1.60
2013,01,21,12,37,1.60
2013,01,21,12,38,1.60
2013,01,21,12,39,1.60
2013,01,21,12,40,1.70
2013,01,21,12,41,1.80
2013,01,21,12,42,1.80
2013,01,21,12,43,1.90
2013,01,21,12,44,1.90
2013,01,21,12,45,1.90
2013,01,21,12,46,1.80
2013,01,21,12,47,1.80
2013,01,21,12,48,1.90
2013,01,21,12,49,1.90
2013,01,21,12,50,1.90
2013,01,21,12,51,1.90
2013,01,21,12,52,1.80
2013,01,21,12,53,1.80
2013,01,21,12,54,1.70
2013,01,21,12,55,1.60
2013,01,21,12,56,1.60
2013,01,21,12,57,1.50
2013,01,21,12,58,1.60
2013,01,21,12,59,1.70
2013,01,21,13,00,1.70
2013,01,21,13,01,1.80
2013,01,21,13,02,1.80
2013,01,21,13,03,1.80
2013,01,21,13,04,1.70
2013,01,21,13,05,1.70
2013,01,21,13,06,1.70
2013,01,21,13,07,1.80
2013,01,21,13,08,1.80
2013,01,21,13,09,1.80
2013,01,21,13,10,1.80
2013,01,21,13,11,1.80
2013,01,21,13,12,1.80
2013,01,21,13,13,1.80
2013,01,21,13,14,1.80
2013,01,21,13,15,1.80
2013,01,21,13,16,1.70
2013,01,21,13,17,1.70
2013,01,21,13,18,1.70
2013,01,21,13,19,1.70
2013,01,21,13,20,1.80
2013,01,21,13,21,1.80
2013,01,21,13,22,1.80
2013,01,21,13,23,1.80
2013,01,21,13,24,1.80
2013,01,21,13,25,1.80
2013,01,21,13,26,1.80
2013,01,21,13,27,1.80
2013,01,21,13,28,1.70
2013,01,21,13,29,1.70
2013,01,21,13,30,1.70
2013,01,21,13,31,1.80
2013,01,21,13,32,1.80
2013,01,21,13,33,1.90
2013,01,21,13,34,1.90
2013,01,21,13,35,1.90
2013,01,21,13,36,1.90
2013,01,21,13,37,1.90
2013,01,21,13,38,1.80
2013,01,21,13,39,1.80
2013,01,21,13,40,1.70
2013,01,21,13,41,1.70
2013,01,21,13,42,1.70
2013,01,21,13,43,1.60
2013,01,21,13,44,1.60
2013,01,21,13,45,1.60
2013,01,21,13,46,1.60
2013,01,21,13,47,1.60
2013,01,21,13,48,1.60
2013,01,21,13,49,1.70
2013,01,21,13,50,1.80
2013,01,21,13,51,1.90
2013,01,21,13,52,2.00
2013,01,21,13,53,2.10
2013,01,21,13,54,2.10
2013,01,21,13,55,2.20
2013,01,21,13,56,2.20
2013,01,21,13,57,2.20
2013,01,21,13,58,2.30
2013,01,21,13,59,2.30
2013,01,21,14,00,2.30
2013,01,21,14,01,2.30
2013,01,21,14,02,2.30
2013,01,21,14,03,2.30
2013,01,21,14,04,2.30
2013,01,21,14,05,2.20
2013,01,21,14,06,2.20
2013,01,21,14,07,2.30
2013,01,21,14,08,2.30
2013,01,21,14,09,2.40
2013,01,21,14,10,2.40
2013,01,21,14,11,2.50
2013,01,21,14,12,2.50
2013,01,21,14,13,2.50
2013,01,21,14,14,2.50
2013,01,21,14,15,2.50
2013,01,21,14,16,2.40
2013,01,21,14,17,2.40
2013,01,21,14,18,2.40
2013,01,21,14,19,2.40
2013,01,21,14,20,2.50
2013,01,21,14,21,2.60
2013,01,21,14,22,2.70
2013,01,21,14,23,2.70
2013,01,21,14,24,2.70
2013,01,21,14,25,2.70
2013,01,21,14,26,2.70
2013,01,21,14,27,2.60
2013,01,21,14,28,2.60
2013,01,21,14,29,2.50
2013,01,21,14,30,2.50
2013,01,21,14,31,2.40
2013,01,21,14,32,2.30
2013,01,21,14,33,2.20
2013,01,21,14,34,2.20
2013,01,21,14,35,2.10
2013,01,21,14,36,2.10
2013,01,21,14,37,2.10
2013,01,21,14,38,2.00
2013,01,21,14,39,2.00
2013,01,21,14,40,2.00
2013,01,21,14,41,1.90
2013,01,21,14,42,1.90
2013,01,21,14,43,1.80
2013,01,21,14,44,1.80
2013,01,21,14,45,1.80
2013,01,21,14,46,1.70
2013,01,21,14,47,1.70
2013,01,21,14,48,1.70
2013,01,21,14,49,1.60
2013,01,21,14,50,1.50
2013,01,21,14,51,1.50
2013,01,21,14,52,1.30
2013,01,21,14,53,1.30
2013,01,21,14,54,1.20
2013,01,21,14,55,1.20
2013,01,21,14,56,1.20
2013,01,21,14,57,1.20
2013,01,21,14,58,1.20
2013,01,21,14,59,1.20
2013,01,21,15,00,1.20
2013,01,21,15,01,1.10
2013,01,21,15,02,1.10
2013,01,21,15,03,1.10
2013,01,21,15,04,1.10
2013,01,21,15,05,1.10
2013,01,21,15,06,1.00
2013,01,21,15,07,0.90
2013,01,21,15,08,0.90
2013,01,21,15,09,0.80
2013,01,21,15,10,0.80
2013,01,21,15,11,0.80
2013,01,21,15,12,0.80
2013,01,21,15,13,0.80
2013,01,21,15,14,0.90
2013,01,21,15,15,0.90
2013,01,21,15,16,0.90
2013,01,21,15,17,0.90
2013,01,21,15,18,0.90
2013,01,21,15,19,0.90
2013,01,21,15,20,0.90
2013,01,21,15,21,0.90
2013,01,21,15,22,1.00
2013,01,21,15,23,1.00
2013,01,21,15,24,0.90
2013,01,21,15,25,0.90
2013,01,21,15,26,0.90
2013,01,21,15,27,0.90
2013,01,21,15,28,0.90
2013,01,21,15,29,0.90
2013,01,21,15,30,0.90
2013,01,21,15,31,0.90
2013,01,21,15,32,0.90
2013,01,21,15,33,0.90
2013,01,21,15,34,0.90
2013,01,21,15,35,0.90
